Starlink 11322

operational
NORAD ID: 61542 Int'l Des: 2024-184 Owner: SPXS Country: US Constellation: starlink
LEOCIRCULAR

About Starlink 11322

Description loading...

Live Position

Loading 3D Globe...

Upcoming Passes

Altitude History

Altitude vs Time

uPlot chart will show altitude changes over time

Two-Line Element Set

1 61542U 24184L 25307.81417345 -.00000282 00000-0 25302-5 0 9997
2 61542 53.1567 137.0423 0001081 78.8159 281.2980 15.69711118 61709
Epoch: Nov 3, 2025 • Age: 19 hours

Current Status

Altitude 364.6 km
Velocity 7.70 km/s
Sub-Earth Point 48.92°N, 4.78°W
Launch Date Oct 15, 2024
Age 1 years
Type internet

Technical Details

Classification Payload
Mass 960.00 kg
Dry Mass 910.00 kg
Total Mass 960.00 kg
Length 0.30 m
Diameter 4.10 m
Span 29.00 m
Shape Box + pan
Manufacturer SPXS
Bus Type Starlink V2MD
Phase Status In Orbit
Owner/State SPXS/US

Large Constellations

Loading constellations...